Hollywood, FL

1:19 AM EST on February 26, 2017 (GMT -0500)
North Perry

Weather History for KHWO - December, 2013

Change the Weather History Date:

Tuesday, December 3, 2013

  Actual Average (KFLL) Record (KFLL)
Temperature  
Mean Temperature 70 °F -  
Max Temperature 79 °F 78 °F 89 °F (2009)
Min Temperature 60 °F 63 °F 42 °F (1935)
Cooling Degree Days 4    
Growing Degree Days 20 (Base 50)    
Moisture  
Dew Point 62 °F    
Average Humidity 76    
Maximum Humidity 96    
Minimum Humidity 50    
Precipitation  
Precipitation 0.00 in - - ()
Sea Level Pressure  
Sea Level Pressure 29.98 in    
Wind  
Wind Speed 2 mph (SSE)    
Max Wind Speed 10 mph    
Max Gust Speed -    
Visibility 10 miles    
Events      
Averages and records for this station are not official NWS values.
T = Trace of Precipitation, MM = Missing Value Source: NWS Daily Summary

Daily Weather History Graph

Daily Weather History Graph

Search for Another Location

Airport or City:

Trip Planner

Search our weather history database for the weather conditions in past years. The results will help you decide how hot, cold, wet, or windy it might be!

Date:

Astronomy

Dec. 03, 2013 Rise Set
Actual Time 6:52 AM EST 5:29 PM EST
Civil Twilight 6:27 AM EST 5:54 PM EST
Nautical Twilight 5:59 AM EST 6:22 PM EST
Astronomical Twilight 5:31 AM EST 6:50 PM EST
Moon 7:22 AM EST (12/3) 6:28 PM EST (12/3)
Length of Visible Light 11h 26m
Length of Day
10h 36m
New Moon, 1% of the Moon is Illuminated
Dec 3
New Moon
Dec 9
First Quarter
Dec 17
Full
Dec 25
Last Quarter
Jan 1
New

Hourly Weather History & Observations

Time (EST) Temp. Dew Point Humidity Pressure Visibility Wind Dir Wind Speed Gust Speed Precip Events Conditions
12:53 AM 62.1 °F 59.0 °F 90% 29.94 in 10.0 mi Calm Calm - N/A   Clear
1:53 AM 60.1 °F 57.9 °F 93% 29.93 in 10.0 mi Calm Calm - N/A   Clear
2:53 AM 60.1 °F 59.0 °F 96% 29.94 in 10.0 mi Calm Calm - N/A   Clear
3:53 AM 60.1 °F 59.0 °F 96% 29.94 in 10.0 mi Calm Calm - N/A   Overcast
4:53 AM 62.1 °F 61.0 °F 96% 29.94 in 10.0 mi Calm Calm - N/A   Overcast
5:53 AM 63.0 °F 61.0 °F 93% 29.95 in 10.0 mi Calm Calm - N/A   Overcast
6:53 AM 64.0 °F 62.1 °F 93% 29.97 in 10.0 mi Calm Calm - N/A   Overcast
7:53 AM 66.0 °F 64.0 °F 93% 29.99 in 10.0 mi Calm Calm - N/A   Overcast
8:53 AM 69.1 °F 62.1 °F 78% 30.01 in 10.0 mi Calm Calm - N/A   Overcast
9:53 AM 73.9 °F 59.0 °F 59% 30.02 in 10.0 mi ESE 3.5 mph - N/A   Scattered Clouds
10:53 AM 77.0 °F 57.0 °F 50% 30.01 in 10.0 mi Variable 6.9 mph - N/A   Clear
11:53 AM 79.0 °F 59.0 °F 50% 29.99 in 10.0 mi South 5.8 mph - N/A   Overcast
12:53 PM 79.0 °F 61.0 °F 54% 29.96 in 10.0 mi SSE 8.1 mph - N/A   Overcast
1:53 PM 78.1 °F 60.1 °F 54% 29.96 in 10.0 mi South 5.8 mph - N/A   Overcast
2:53 PM 78.1 °F 61.0 °F 56% 29.95 in 10.0 mi SE 10.4 mph - N/A   Mostly Cloudy
3:53 PM 78.1 °F 61.0 °F 56% 29.95 in 10.0 mi SE 10.4 mph - N/A   Partly Cloudy
4:53 PM 77.0 °F 61.0 °F 58% 29.95 in 10.0 mi SSE 9.2 mph - N/A   Scattered Clouds
5:53 PM 73.9 °F 62.1 °F 66% 29.97 in 10.0 mi SE 3.5 mph - N/A   Clear
6:53 PM 73.0 °F 64.0 °F 73% 29.99 in 10.0 mi SSE 3.5 mph - N/A   Clear
7:53 PM 72.0 °F 64.0 °F 76% 30.00 in 10.0 mi SSE 3.5 mph - N/A   Clear
8:53 PM 71.1 °F 64.9 °F 81% 30.02 in 10.0 mi Calm Calm - N/A   Clear
9:53 PM 70.0 °F 66.0 °F 87% 30.03 in 10.0 mi Calm Calm - N/A   Mostly Cloudy
10:53 PM 70.0 °F 66.0 °F 87% 30.03 in 10.0 mi South 3.5 mph - N/A   Scattered Clouds
11:53 PM 70.0 °F 64.9 °F 84% 30.02 in 10.0 mi South 4.6 mph - N/A   Clear